| time (UTC) | temp C | wind direction | speed KPH | gust KPH | rain 1hr cm | rain 24hr cm | rain mn cm | humidity % | barometer mb |
| 20260508231614 | 11 | 171 | 0.0 | 0.0 | 0.00 | 0.20 | 0.20 | 68 | 1008.7 |
| 20260508231110 | 11 | 170 | 1.6 | 1.6 | 0.00 | 0.20 | 0.20 | 67 | 1008.8 |
| 20260508230607 | 11 | 171 | 1.6 | 1.6 | 0.00 | 0.20 | 0.20 | 67 | 1008.6 |
| 20260508230103 | 11 | 245 | 1.6 | 1.6 | 0.00 | 0.20 | 0.20 | 65 | 1008.5 |
| 20260508225601 | 11 | 163 | 3.2 | 3.2 | 0.00 | 0.20 | 0.20 | 65 | 1008.9 |
| 20260508225057 | 11 | 37 | 3.2 | 4.8 | 0.00 | 0.20 | 0.20 | 64 | 1008.8 |
| 20260508224555 | 11 | 208 | 0.0 | 0.0 | 0.00 | 0.20 | 0.20 | 65 | 1008.8 |
| 20260508224052 | 11 | 186 | 1.6 | 1.6 | 0.00 | 0.20 | 0.20 | 64 | 1008.6 |
| 20260508223550 | 11 | 164 | 0.0 | 0.0 | 0.00 | 0.20 | 0.20 | 66 | 1008.6 |
| 20260508223047 | 11 | 194 | 3.2 | 3.2 | 0.00 | 0.20 | 0.20 | 62 | 1008.5 |
| 20260508222544 | 11 | 197 | 1.6 | 3.2 | 0.00 | 0.20 | 0.20 | 63 | 1008.3 |
| 20260508222041 | 11 | 185 | 0.0 | 0.0 | 0.00 | 0.20 | 0.20 | 66 | 1008.2 |
| 20260508221537 | 11 | 180 | 0.0 | 0.0 | 0.00 | 0.20 | 0.20 | 67 | 1008.4 |
| 20260508221033 | 11 | 187 | 0.0 | 1.6 | 0.00 | 0.20 | 0.20 | 67 | 1008.4 |
| 20260508220530 | 11 | 175 | 0.0 | 0.0 | 0.00 | 0.20 | 0.20 | 68 | 1008.3 |
| 20260508220026 | 12 | 177 | 1.6 | 1.6 | 0.00 | 0.20 | 0.20 | 65 | 1008.6 |
| 20260508215524 | 12 | 179 | 0.0 | 1.6 | 0.00 | 0.20 | 0.20 | 63 | 1008.6 |
| 20260508215020 | 12 | 216 | 1.6 | 3.2 | 0.00 | 0.20 | 0.20 | 59 | 1008.3 |
| 20260508214518 | 12 | 219 | 0.0 | 0.0 | 0.00 | 0.20 | 0.20 | 62 | 1008.4 |
| 20260508214014 | 12 | 231 | 3.2 | 3.2 | 0.00 | 0.20 | 0.20 | 60 | 1008.5 |
| 20260508213512 | 12 | 237 | 1.6 | 3.2 | 0.00 | 0.20 | 0.20 | 60 | 1008.4 |
| 20260508213007 | 13 | 219 | 1.6 | 3.2 | 0.00 | 0.20 | 0.20 | 56 | 1008.5 |
| 20260508212504 | 12 | 190 | 1.6 | 3.2 | 0.00 | 0.20 | 0.20 | 56 | 1008.4 |
| 20260508212000 | 14 | 238 | 4.8 | 6.4 | 0.00 | 0.20 | 0.20 | 55 | 1008.4 |
| 20260508211455 | 14 | 286 | 0.0 | 1.6 | 0.00 | 0.20 | 0.20 | 54 | 1008.6 |
| 20260508210952 | 13 | 247 | 1.6 | 1.6 | 0.00 | 0.20 | 0.20 | 59 | 1008.3 |
| 20260508210449 | 12 | 217 | 3.2 | 3.2 | 0.00 | 0.20 | 0.20 | 56 | 1008.3 |
| 20260508205945 | 12 | 233 | 4.8 | 6.4 | 0.00 | 0.20 | 0.20 | 57 | 1008.4 |
| 20260508205443 | 12 | 229 | 3.2 | 3.2 | 0.00 | 0.20 | 0.20 | 57 | 1008.4 |
| 20260508204939 | 12 | 164 | 1.6 | 3.2 | 0.00 | 0.20 | 0.20 | 59 | 1008.5 |
| 20260508204437 | 12 | 248 | 3.2 | 4.8 | 0.00 | 0.20 | 0.20 | 58 | 1008.4 |
| 20260508203931 | 12 | 248 | 3.2 | 3.2 | 0.00 | 0.20 | 0.20 | 55 | 1008.6 |
| 20260508203428 | 13 | 229 | 4.8 | 9.7 | 0.00 | 0.20 | 0.20 | 54 | 1008.4 |
| 20260508202924 | 14 | 223 | 11.3 | 12.9 | 0.00 | 0.20 | 0.20 | 52 | 1008.3 |
| 20260508202421 | 14 | 229 | 6.4 | 11.3 | 0.00 | 0.20 | 0.20 | 52 | 1008.6 |
| 20260508201918 | 15 | 235 | 3.2 | 4.8 | 0.00 | 0.20 | 0.20 | 56 | 1008.5 |
| 20260508201415 | 14 | 224 | 6.4 | 11.3 | 0.00 | 0.20 | 0.20 | 54 | 1008.5 |
| 20260508200911 | 13 | 225 | 6.4 | 6.4 | 0.00 | 0.20 | 0.20 | 55 | 1008.6 |
| 20260508200409 | 13 | 258 | 6.4 | 6.4 | 0.00 | 0.20 | 0.20 | 55 | 1008.6 |
| 20260508195904 | 13 | 222 | 1.6 | 1.6 | 0.00 | 0.20 | 0.20 | 58 | 1008.5 |
| 20260508195401 | 12 | 240 | 3.2 | 4.8 | 0.00 | 0.20 | 0.20 | 63 | 1008.6 |
| 20260508194857 | 13 | 217 | 3.2 | 4.8 | 0.00 | 0.20 | 0.20 | 59 | 1008.7 |
| 20260508194354 | 13 | 225 | 4.8 | 4.8 | 0.00 | 0.20 | 0.20 | 56 | 1008.9 |
| 20260508193851 | 13 | 196 | 6.4 | 6.4 | 0.00 | 0.20 | 0.20 | 60 | 1008.7 |
| 20260508193348 | 13 | 230 | 9.7 | 11.3 | 0.00 | 0.20 | 0.20 | 58 | 1008.9 |
| 20260508192844 | 13 | 250 | 3.2 | 4.8 | 0.00 | 0.20 | 0.20 | 63 | 1008.7 |
| 20260508192341 | 12 | 187 | 6.4 | 9.7 | 0.00 | 0.20 | 0.20 | 62 | 1008.9 |
| 20260508191838 | 12 | 233 | 3.2 | 4.8 | 0.00 | 0.20 | 0.20 | 61 | 1008.8 |
| 20260508191336 | 13 | 233 | 11.3 | 12.9 | 0.00 | 0.20 | 0.20 | 61 | 1008.9 |
| 20260508190833 | 12 | 239 | 8.0 | 9.7 | 0.00 | 0.20 | 0.20 | 65 | 1008.8 |
| 20260508190329 | 11 | 258 | 4.8 | 6.4 | 0.00 | 0.20 | 0.20 | 68 | 1009.1 |
| 20260508185826 | 11 | 317 | 3.2 | 4.8 | 0.00 | 0.20 | 0.20 | 69 | 1009.1 |
| 20260508185323 | 11 | 286 | 4.8 | 4.8 | 0.00 | 0.20 | 0.20 | 69 | 1009.3 |
| 20260508184820 | 12 | 269 | 9.7 | 14.5 | 0.00 | 0.20 | 0.20 | 66 | 1009.5 |
| 20260508184318 | 11 | 202 | 9.7 | 12.9 | 0.00 | 0.20 | 0.20 | 68 | 1009.3 |
| 20260508183814 | 11 | 243 | 6.4 | 9.7 | 0.00 | 0.20 | 0.20 | 71 | 1009.3 |
| 20260508183311 | 10 | 189 | 1.6 | 3.2 | 0.00 | 0.20 | 0.20 | 77 | 1009.4 |
| 20260508182806 | 10 | 230 | 4.8 | 6.4 | 0.00 | 0.20 | 0.20 | 76 | 1009.3 |
| 20260508182306 | 10 | 224 | 4.8 | 4.8 | 0.00 | 0.20 | 0.20 | 77 | 1009.5 |
| 20260508181753 | 11 | 230 | 9.7 | 11.3 | 0.00 | 0.20 | 0.20 | 73 | 1009.3 |
| 20260508181250 | 10 | 248 | 3.2 | 4.8 | 0.00 | 0.20 | 0.20 | 74 | 1009.3 |
| 20260508180747 | 10 | 239 | 6.4 | 9.7 | 0.00 | 0.20 | 0.20 | 76 | 1009.4 |
| 20260508180244 | 8 | 213 | 8.0 | 9.7 | 0.00 | 0.20 | 0.20 | 77 | 1009.4 |
| 20260508175741 | 8 | 350 | 3.2 | 3.2 | 0.00 | 0.20 | 0.20 | 77 | 1009.3 |
| 20260508175237 | 9 | 237 | 8.0 | 12.9 | 0.00 | 0.20 | 0.20 | 71 | 1009.3 |
| 20260508174735 | 10 | 241 | 6.4 | 6.4 | 0.00 | 0.20 | 0.20 | 69 | 1009.1 |
| 20260508174232 | 9 | 80 | 4.8 | 6.4 | 0.00 | 0.20 | 0.20 | 70 | 1009.0 |
| 20260508173728 | 10 | 260 | 8.0 | 9.7 | 0.00 | 0.20 | 0.20 | 68 | 1009.0 |
| 20260508173225 | 10 | 265 | 6.4 | 6.4 | 0.00 | 0.20 | 0.20 | 67 | 1009.1 |
| 20260508172722 | 10 | 227 | 1.6 | 3.2 | 0.00 | 0.20 | 0.20 | 66 | 1008.7 |
| 20260508172219 | 10 | 224 | 3.2 | 4.8 | 0.00 | 0.20 | 0.20 | 64 | 1008.9 |
| 20260508171715 | 10 | 239 | 4.8 | 4.8 | 0.00 | 0.20 | 0.20 | 64 | 1009.0 |
| 20260508171211 | 10 | 334 | 4.8 | 4.8 | 0.00 | 0.20 | 0.20 | 63 | 1008.8 |
| 20260508170708 | 10 | 211 | 3.2 | 4.8 | 0.00 | 0.20 | 0.20 | 63 | 1008.7 |
| 20260508170206 | 10 | 227 | 3.2 | 4.8 | 0.00 | 0.20 | 0.20 | 62 | 1008.6 |
| 20260508165703 | 10 | 248 | 4.8 | 4.8 | 0.00 | 0.20 | 0.20 | 65 | 1008.6 |
| 20260508165200 | 11 | 71 | 3.2 | 4.8 | 0.00 | 0.20 | 0.20 | 65 | 1008.6 |
| 20260508164656 | 11 | 239 | 1.6 | 3.2 | 0.00 | 0.20 | 0.20 | 64 | 1008.8 |
| 20260508164153 | 11 | 217 | 3.2 | 3.2 | 0.00 | 0.20 | 0.20 | 63 | 1008.9 |
| 20260508163651 | 11 | 274 | 6.4 | 9.7 | 0.00 | 0.20 | 0.20 | 61 | 1008.7 |
| 20260508163148 | 11 | 244 | 8.0 | 9.7 | 0.00 | 0.20 | 0.20 | 63 | 1008.6 |
| 20260508162643 | 11 | 168 | 1.6 | 3.2 | 0.00 | 0.20 | 0.20 | 66 | 1009.0 |
| 20260508162141 | 11 | 174 | 3.2 | 3.2 | 0.00 | 0.20 | 0.20 | 63 | 1009.1 |
| 20260508161638 | 11 | 100 | 3.2 | 4.8 | 0.00 | 0.20 | 0.20 | 65 | 1008.7 |
| 20260508161135 | 11 | 104 | 0.0 | 1.6 | 0.00 | 0.20 | 0.20 | 61 | 1009.0 |
| 20260508160634 | 11 | 214 | 4.8 | 4.8 | 0.00 | 0.20 | 0.20 | 64 | 1008.7 |
| 20260508160131 | 11 | 221 | 3.2 | 4.8 | 0.00 | 0.20 | 0.20 | 59 | 1009.1 |
| 20260508155628 | 12 | 119 | 6.4 | 9.7 | 0.00 | 0.20 | 0.20 | 58 | 1008.8 |
| 20260508155124 | 12 | 150 | 1.6 | 1.6 | 0.00 | 0.20 | 0.20 | 63 | 1009.2 |
| 20260508154621 | 10 | 242 | 4.8 | 6.4 | 0.00 | 0.20 | 0.20 | 64 | 1009.1 |
| 20260508154118 | 9 | 218 | 4.8 | 6.4 | 0.00 | 0.20 | 0.20 | 71 | 1009.2 |
| 20260508153615 | 9 | 248 | 6.4 | 11.3 | 0.00 | 0.20 | 0.20 | 64 | 1009.4 |
| 20260508153112 | 10 | 112 | 4.8 | 6.4 | 0.00 | 0.20 | 0.20 | 64 | 1009.1 |
| 20260508152609 | 10 | 345 | 1.6 | 4.8 | 0.00 | 0.20 | 0.20 | 62 | 1009.0 |
| 20260508152104 | 11 | 195 | 4.8 | 4.8 | 0.00 | 0.20 | 0.20 | 63 | 1009.1 |
| 20260508151601 | 11 | 226 | 3.2 | 3.2 | 0.00 | 0.20 | 0.20 | 62 | 1009.0 |
| 20260508151058 | 11 | 203 | 1.6 | 3.2 | 0.00 | 0.20 | 0.20 | 60 | 1009.1 |
| 20260508150555 | 11 | 207 | 3.2 | 4.8 | 0.00 | 0.20 | 0.20 | 68 | 1009.2 |
| 20260508150050 | 10 | 213 | 4.8 | 6.4 | 0.00 | 0.20 | 0.20 | 63 | 1009.2 |
| 20260508145542 | 10 | 246 | 4.8 | 4.8 | 0.00 | 0.20 | 0.20 | 69 | 1009.1 |
| 20260508145038 | 10 | 176 | 1.6 | 3.2 | 0.00 | 0.20 | 0.20 | 67 | 1009.3 |
| 20260508144536 | 10 | 218 | 3.2 | 3.2 | 0.00 | 0.20 | 0.20 | 66 | 1009.3 |
| 20260508144033 | 10 | 174 | 3.2 | 3.2 | 0.00 | 0.20 | 0.20 | 69 | 1009.2 |
| 20260508143531 | 8 | 226 | 4.8 | 4.8 | 0.00 | 0.20 | 0.20 | 75 | 1009.4 |
| 20260508143026 | 8 | 183 | 1.6 | 1.6 | 0.00 | 0.20 | 0.20 | 77 | 1009.3 |
| 20260508142518 | 9 | 173 | 4.8 | 4.8 | 0.00 | 0.20 | 0.20 | 73 | 1009.4 |
| 20260508142015 | 10 | 207 | 3.2 | 3.2 | 0.00 | 0.20 | 0.20 | 70 | 1009.3 |
| 20260508141511 | 10 | 25 | 1.6 | 1.6 | 0.00 | 0.20 | 0.20 | 74 | 1009.4 |
| 20260508141009 | 10 | 178 | 3.2 | 3.2 | 0.00 | 0.20 | 0.20 | 71 | 1009.5 |
| 20260508140506 | 9 | 235 | 4.8 | 4.8 | 0.00 | 0.20 | 0.20 | 75 | 1009.3 |
| 20260508140002 | 9 | 198 | 3.2 | 3.2 | 0.00 | 0.20 | 0.20 | 74 | 1009.3 |
| 20260508135458 | 9 | 82 | 0.0 | 1.6 | 0.00 | 0.20 | 0.20 | 71 | 1009.3 |
| 20260508134955 | 10 | 53 | 1.6 | 1.6 | 0.00 | 0.20 | 0.20 | 74 | 1009.4 |
| 20260508134451 | 8 | 195 | 0.0 | 0.0 | 0.00 | 0.20 | 0.20 | 76 | 1009.7 |
| 20260508133948 | 8 | 224 | 1.6 | 1.6 | 0.00 | 0.20 | 0.20 | 85 | 1009.6 |
| 20260508133445 | 7 | 203 | 4.8 | 4.8 | 0.00 | 0.20 | 0.20 | 84 | 1009.7 |
| 20260508132942 | 8 | 210 | 0.0 | 0.0 | 0.00 | 0.20 | 0.20 | 83 | 1009.6 |
| 20260508132440 | 7 | 232 | 3.2 | 3.2 | 0.00 | 0.20 | 0.20 | 84 | 1009.6 |
| 20260508131937 | 7 | 35 | 1.6 | 3.2 | 0.00 | 0.20 | 0.20 | 86 | 1009.9 |
| 20260508131432 | 8 | 213 | 3.2 | 4.8 | 0.00 | 0.20 | 0.20 | 87 | 1009.9 |
| 20260508130929 | 7 | 211 | 3.2 | 3.2 | 0.00 | 0.20 | 0.20 | 85 | 1009.9 |
| 20260508130426 | 7 | 210 | 0.0 | 0.0 | 0.00 | 0.20 | 0.20 | 91 | 1010.1 |
| 20260508125922 | 7 | 159 | 1.6 | 1.6 | 0.00 | 0.20 | 0.20 | 90 | 1009.9 |
| 20260508125418 | 7 | 199 | 0.0 | 1.6 | 0.00 | 0.20 | 0.20 | 95 | 1009.8 |
| 20260508124916 | 6 | 263 | 3.2 | 3.2 | 0.00 | 0.20 | 0.20 | 96 | 1009.7 |
| 20260508124413 | 6 | 181 | 1.6 | 1.6 | 0.00 | 0.20 | 0.20 | 97 | 1009.7 |
| 20260508123911 | 5 | 138 | 0.0 | 1.6 | 0.00 | 0.20 | 0.20 | 98 | 1009.9 |
| 20260508123410 | 5 | 178 | 1.6 | 1.6 | 0.00 | 0.20 | 0.20 | 99 | 1009.9 |
| 20260508122905 | 5 | 189 | 1.6 | 1.6 | 0.00 | 0.20 | 0.20 | 99 | 1009.8 |
| 20260508122403 | 5 | 173 | 3.2 | 3.2 | 0.00 | 0.20 | 0.20 | 99 | 1009.8 |
| 20260508121900 | 5 | 173 | 3.2 | 3.2 | 0.00 | 0.20 | 0.20 | 99 | 1009.5 |
| 20260508121358 | 5 | 172 | 1.6 | 3.2 | 0.00 | 0.20 | 0.20 | 99 | 1009.6 |
| 20260508120855 | 5 | 153 | 0.0 | 0.0 | 0.00 | 0.20 | 0.20 | 99 | 1009.6 |
| 20260508120353 | 4 | 151 | 1.6 | 1.6 | 0.00 | 0.20 | 0.20 | 99 | 1009.9 |
| 20260508115850 | 4 | 160 | 1.6 | 1.6 | 0.00 | 0.20 | 0.20 | 99 | 1009.8 |
| 20260508115348 | 3 | 154 | 0.0 | 1.6 | 0.00 | 0.20 | 0.20 | 99 | 1009.7 |
| 20260508114844 | 3 | 158 | 0.0 | 0.0 | 0.00 | 0.20 | 0.20 | 99 | 1009.9 |
| 20260508114341 | 3 | 159 | 0.0 | 0.0 | 0.00 | 0.20 | 0.20 | 99 | 1009.9 |
| 20260508113838 | 3 | 126 | 1.6 | 1.6 | 0.00 | 0.20 | 0.20 | 99 | 1009.6 |
| 20260508113336 | 3 | 329 | 1.6 | 1.6 | 0.00 | 0.20 | 0.20 | 99 | 1009.8 |
| 20260508112832 | 3 | 186 | 0.0 | 1.6 | 0.00 | 0.20 | 0.20 | 99 | 1009.9 |
| 20260508112329 | 3 | 186 | 1.6 | 1.6 | 0.00 | 0.20 | 0.20 | 99 | 1009.9 |
| 20260508111826 | 3 | 186 | 3.2 | 3.2 | 0.00 | 0.20 | 0.20 | 99 | 1009.8 |
| 20260508111323 | 3 | 186 | 0.0 | 1.6 | 0.00 | 0.20 | 0.20 | 99 | 1009.7 |
| 20260508110820 | 3 | 186 | 0.0 | 0.0 | 0.00 | 0.20 | 0.20 | 99 | 1009.4 |
| 20260508110318 | 2 | 186 | 1.6 | 3.2 | 0.00 | 0.20 | 0.20 | 99 | 1009.6 |
| 20260508105817 | 2 | 186 | 1.6 | 1.6 | 0.00 | 0.20 | 0.20 | 99 | 1009.5 |
| 20260508105314 | 2 | 186 | 0.0 | 1.6 | 0.00 | 0.20 | 0.20 | 99 | 1009.7 |
| 20260508104811 | 2 | 186 | 0.0 | 0.0 | 0.00 | 0.20 | 0.20 | 99 | 1009.5 |
| 20260508104308 | 3 | 186 | 0.0 | 0.0 | 0.00 | 0.20 | 0.20 | 99 | 1009.4 |
| 20260508103805 | 3 | 186 | 0.0 | 0.0 | 0.00 | 0.20 | 0.20 | 99 | 1009.2 |
| 20260508103302 | 2 | 186 | 0.0 | 0.0 | 0.00 | 0.20 | 0.20 | 99 | 1009.5 |
| 20260508102800 | 2 | 186 | 1.6 | 1.6 | 0.00 | 0.20 | 0.20 | 99 | 1009.3 |
| 20260508102258 | 2 | 186 | 0.0 | 1.6 | 0.18 | 0.20 | 0.20 | 99 | 1009.4 |
| 20260508101755 | 2 | 186 | 0.0 | 1.6 | 0.18 | 0.20 | 0.20 | 99 | 1009.2 |
| 20260508101252 | 2 | 186 | 1.6 | 1.6 | 0.00 | 0.18 | 0.18 | 99 | 1009.4 |
| 20260508100749 | 2 | 186 | 0.0 | 1.6 | 0.00 | 0.18 | 0.18 | 99 | 1009.3 |
| 20260508100248 | 2 | 185 | 0.0 | 0.0 | 0.00 | 0.18 | 0.18 | 99 | 1009.1 |
| 20260508095743 | 2 | 185 | 0.0 | 0.0 | 0.00 | 0.18 | 0.18 | 99 | 1009.3 |
| 20260508095241 | 2 | 185 | 0.0 | 0.0 | 0.00 | 0.18 | 0.18 | 99 | 1009.2 |
| 20260508094737 | 2 | 185 | 1.6 | 1.6 | 0.00 | 0.18 | 0.18 | 99 | 1009.1 |
| 20260508094235 | 2 | 185 | 1.6 | 1.6 | 0.00 | 0.18 | 0.18 | 99 | 1009.1 |
| 20260508093732 | 2 | 185 | 1.6 | 3.2 | 0.00 | 0.18 | 0.18 | 99 | 1009.0 |
| 20260508093229 | 2 | 185 | 0.0 | 0.0 | 0.00 | 0.18 | 0.18 | 99 | 1008.7 |
| 20260508092726 | 2 | 185 | 0.0 | 0.0 | 0.00 | 0.18 | 0.18 | 99 | 1008.8 |
| 20260508092224 | 2 | 185 | 0.0 | 0.0 | 0.00 | 0.18 | 0.18 | 99 | 1009.0 |
| 20260508091722 | 2 | 185 | 0.0 | 0.0 | 0.00 | 0.18 | 0.18 | 99 | 1008.7 |
| 20260508091219 | 2 | 185 | 0.0 | 0.0 | 0.00 | 0.18 | 0.18 | 99 | 1008.6 |
| 20260508090717 | 2 | 185 | 0.0 | 0.0 | 0.00 | 0.18 | 0.18 | 99 | 1008.7 |
| 20260508090214 | 3 | 185 | 0.0 | 0.0 | 0.00 | 0.18 | 0.18 | 99 | 1008.7 |
| 20260508085710 | 3 | 185 | 0.0 | 1.6 | 0.00 | 0.18 | 0.18 | 99 | 1009.0 |
| 20260508085207 | 3 | 185 | 0.0 | 0.0 | 0.00 | 0.18 | 0.18 | 99 | 1009.0 |
| 20260508084703 | 3 | 185 | 0.0 | 1.6 | 0.00 | 0.18 | 0.18 | 99 | 1009.0 |
| 20260508084201 | 3 | 185 | 0.0 | 1.6 | 0.00 | 0.18 | 0.18 | 99 | 1008.9 |
| 20260508083658 | 2 | 185 | 0.0 | 0.0 | 0.00 | 0.18 | 0.18 | 99 | 1008.8 |
| 20260508083155 | 2 | 185 | 0.0 | 0.0 | 0.00 | 0.18 | 0.18 | 99 | 1008.6 |
| 20260508082650 | 2 | 185 | 0.0 | 0.0 | 0.00 | 0.18 | 0.18 | 99 | 1008.7 |
| 20260508082148 | 2 | 185 | 0.0 | 0.0 | 0.00 | 0.18 | 0.18 | 99 | 1008.7 |
| 20260508081645 | 2 | 185 | 1.6 | 1.6 | 0.00 | 0.18 | 0.18 | 99 | 1008.5 |
| 20260508081141 | 3 | 185 | 0.0 | 1.6 | 0.00 | 0.18 | 0.18 | 99 | 1008.6 |
| 20260508080638 | 3 | 185 | 0.0 | 0.0 | 0.00 | 0.18 | 0.18 | 99 | 1008.5 |
| 20260508080136 | 3 | 185 | 0.0 | 0.0 | 0.00 | 0.18 | 0.18 | 99 | 1008.7 |
| 20260508075627 | 3 | 186 | 0.0 | 0.0 | 0.00 | 0.18 | 0.18 | 99 | 1008.5 |
| 20260508075124 | 3 | 186 | 0.0 | 0.0 | 0.00 | 0.18 | 0.18 | 99 | 1008.6 |
| 20260508074622 | 3 | 185 | 0.0 | 0.0 | 0.00 | 0.18 | 0.18 | 99 | 1008.6 |
| 20260508074119 | 3 | 185 | 0.0 | 0.0 | 0.00 | 0.18 | 0.18 | 99 | 1008.4 |
| 20260508073616 | 3 | 185 | 0.0 | 0.0 | 0.00 | 0.18 | 0.18 | 99 | 1008.4 |
| 20260508073114 | 3 | 186 | 0.0 | 0.0 | 0.00 | 0.18 | 0.18 | 99 | 1008.5 |
| 20260508072609 | 3 | 185 | 0.0 | 0.0 | 0.00 | 0.18 | 0.18 | 99 | 1008.3 |
| 20260508072106 | 4 | 186 | 0.0 | 0.0 | 0.00 | 0.18 | 0.18 | 99 | 1008.4 |
| 20260508071604 | 4 | 186 | 0.0 | 0.0 | 0.00 | 0.18 | 0.18 | 99 | 1008.6 |
| 20260508071103 | 5 | 186 | 0.0 | 0.0 | 0.00 | 0.18 | 0.18 | 99 | 1008.5 |
| 20260508070559 | 5 | 186 | 0.0 | 0.0 | 0.00 | 0.18 | 0.18 | 99 | 1008.4 |
| 20260508070058 | 5 | 186 | 0.0 | 1.6 | 0.00 | 0.18 | 0.18 | 99 | 1008.7 |
| 20260508065555 | 5 | 186 | 1.6 | 1.6 | 0.00 | 0.18 | 0.18 | 99 | 1008.2 |
| 20260508065053 | 5 | 186 | 1.6 | 1.6 | 0.00 | 0.18 | 0.18 | 99 | 1008.3 |
| 20260508064550 | 5 | 185 | 0.0 | 0.0 | 0.00 | 0.18 | 0.18 | 99 | 1008.3 |
| 20260508064048 | 5 | 185 | 1.6 | 1.6 | 0.00 | 0.18 | 0.18 | 99 | 1008.6 |
| 20260508063545 | 5 | 185 | 1.6 | 1.6 | 0.00 | 0.18 | 0.18 | 99 | 1008.4 |
| 20260508063043 | 5 | 177 | 1.6 | 1.6 | 0.00 | 0.18 | 0.18 | 99 | 1008.4 |
| 20260508062540 | 5 | 177 | 0.0 | 0.0 | 0.00 | 0.18 | 0.18 | 99 | 1008.6 |
| 20260508062037 | 5 | 177 | 0.0 | 0.0 | 0.00 | 0.18 | 0.18 | 99 | 1008.9 |
| 20260508061535 | 5 | 178 | 1.6 | 1.6 | 0.18 | 0.18 | 0.18 | 99 | 1008.9 |
| 20260508061031 | 5 | 170 | 1.6 | 1.6 | 0.18 | 0.18 | 0.18 | 99 | 1009.0 |
| 20260508060528 | 5 | 171 | 1.6 | 1.6 | 0.00 | 0.15 | 0.15 | 99 | 1008.9 |
| 20260508060026 | 5 | 170 | 0.0 | 0.0 | 0.00 | 0.15 | 0.15 | 98 | 1009.0 |
| 20260508055521 | 5 | 170 | 0.0 | 1.6 | 0.00 | 0.15 | 0.15 | 98 | 1008.8 |
| 20260508055018 | 5 | 170 | 0.0 | 1.6 | 0.00 | 0.15 | 0.15 | 98 | 1008.8 |
| 20260508054515 | 5 | 170 | 0.0 | 0.0 | 0.00 | 0.15 | 0.15 | 97 | 1008.6 |
| 20260508054012 | 5 | 170 | 0.0 | 0.0 | 0.00 | 0.15 | 0.15 | 97 | 1009.0 |
| 20260508053509 | 5 | 170 | 0.0 | 0.0 | 0.00 | 0.15 | 0.15 | 96 | 1008.9 |
| 20260508053007 | 5 | 170 | 0.0 | 0.0 | 0.00 | 0.15 | 0.15 | 96 | 1009.1 |
| 20260508052504 | 5 | 170 | 0.0 | 0.0 | 0.00 | 0.15 | 0.15 | 95 | 1009.1 |
| 20260508052000 | 5 | 170 | 0.0 | 0.0 | 0.00 | 0.15 | 0.15 | 95 | 1009.2 |
| 20260508051456 | 5 | 170 | 0.0 | 0.0 | 0.30 | 0.15 | 0.15 | 94 | 1009.3 |
| 20260508050952 | 5 | 172 | 3.2 | 3.2 | 0.61 | 0.15 | 0.15 | 93 | 1009.4 |
| 20260508050449 | 5 | 169 | 1.6 | 1.6 | 0.43 | 0.10 | 0.10 | 93 | 1009.5 |
| 20260508045945 | 6 | 167 | 1.6 | 1.6 | 0.48 | 0.08 | 0.08 | 91 | 1009.0 |
| 20260508045442 | 6 | 168 | 1.6 | 4.8 | 0.18 | 0.03 | 0.03 | 88 | 1009.4 |
| 20260508044940 | 6 | 231 | 3.2 | 4.8 | 0.00 | 0.00 | 0.00 | 85 | 1009.1 |
| 20260508044437 | 7 | 284 | 4.8 | 6.4 | 0.00 | 0.00 | 0.00 | 83 | 1008.8 |
| 20260508043932 | 7 | 201 | 1.6 | 1.6 | 0.00 | 0.00 | 0.00 | 78 | 1008.2 |
| 20260508043430 | 6 | 200 | 0.0 | 1.6 | 0.00 | 0.00 | 0.00 | 77 | 1007.8 |
| 20260508042926 | 7 | 200 | 0.0 | 0.0 | 0.00 | 0.00 | 0.00 | 78 | 1007.6 |
| 20260508042424 | 7 | 200 | 0.0 | 1.6 | 0.00 | 0.00 | 0.00 | 78 | 1007.4 |
| 20260508041920 | 7 | 200 | 1.6 | 1.6 | 0.00 | 0.00 | 0.00 | 79 | 1007.3 |
| 20260508041417 | 7 | 200 | 0.0 | 1.6 | 0.00 | 0.00 | 0.00 | 79 | 1007.3 |
| 20260508040913 | 7 | 200 | 0.0 | 1.6 | 0.00 | 0.00 | 0.00 | 79 | 1006.8 |
| 20260508040410 | 7 | 200 | 0.0 | 0.0 | 0.00 | 0.00 | 0.00 | 80 | 1006.8 |
| 20260508035908 | 7 | 200 | 0.0 | 0.0 | 0.00 | 0.03 | 0.03 | 78 | 1006.9 |
| 20260508035400 | 7 | 201 | 0.0 | 0.0 | 0.00 | 0.03 | 0.03 | 78 | 1007.0 |
| 20260508034856 | 7 | 201 | 1.6 | 1.6 | 0.00 | 0.03 | 0.03 | 80 | 1007.2 |
| 20260508034353 | 7 | 201 | 0.0 | 1.6 | 0.00 | 0.03 | 0.03 | 78 | 1006.9 |
| 20260508033850 | 7 | 201 | 1.6 | 1.6 | 0.00 | 0.03 | 0.03 | 77 | 1006.9 |
| 20260508033349 | 7 | 201 | 1.6 | 1.6 | 0.00 | 0.03 | 0.03 | 72 | 1006.9 |
| 20260508032846 | 8 | 201 | 1.6 | 1.6 | 0.00 | 0.03 | 0.03 | 71 | 1006.9 |
| 20260508032343 | 8 | 89 | 1.6 | 3.2 | 0.00 | 0.03 | 0.03 | 65 | 1006.9 |
| 20260508031840 | 8 | 88 | 0.0 | 0.0 | 0.00 | 0.03 | 0.03 | 65 | 1006.8 |
| 20260508031337 | 7 | 124 | 0.0 | 0.0 | 0.00 | 0.03 | 0.03 | 66 | 1006.8 |
| 20260508030833 | 7 | 124 | 0.0 | 0.0 | 0.00 | 0.03 | 0.03 | 69 | 1006.9 |
| 20260508030330 | 7 | 124 | 0.0 | 0.0 | 0.00 | 0.03 | 0.03 | 71 | 1007.0 |
| 20260508025827 | 8 | 124 | 1.6 | 1.6 | 0.00 | 0.03 | 0.03 | 69 | 1007.0 |
| 20260508025324 | 8 | 124 | 0.0 | 0.0 | 0.00 | 0.03 | 0.03 | 65 | 1007.0 |
| 20260508024821 | 8 | 127 | 0.0 | 1.6 | 0.00 | 0.03 | 0.03 | 64 | 1007.3 |
| 20260508024317 | 8 | 127 | 0.0 | 0.0 | 0.00 | 0.03 | 0.03 | 64 | 1007.2 |
| 20260508023814 | 8 | 54 | 0.0 | 0.0 | 0.00 | 0.03 | 0.03 | 62 | 1007.2 |
| 20260508023311 | 8 | 162 | 0.0 | 0.0 | 0.00 | 0.03 | 0.03 | 64 | 1007.2 |
| 20260508022807 | 8 | 162 | 0.0 | 0.0 | 0.00 | 0.03 | 0.03 | 62 | 1007.0 |
| 20260508022306 | 8 | 162 | 0.0 | 0.0 | 0.00 | 0.03 | 0.03 | 62 | 1007.2 |
| 20260508021801 | 8 | 162 | 0.0 | 0.0 | 0.00 | 0.03 | 0.03 | 63 | 1006.9 |
| 20260508021256 | 8 | 162 | 0.0 | 0.0 | 0.00 | 0.03 | 0.03 | 64 | 1007.2 |
| 20260508020753 | 8 | 162 | 1.6 | 1.6 | 0.00 | 0.03 | 0.03 | 61 | 1007.4 |
| 20260508020251 | 7 | 162 | 0.0 | 1.6 | 0.00 | 0.03 | 0.03 | 63 | 1007.0 |
| 20260508015747 | 7 | 163 | 0.0 | 0.0 | 0.00 | 0.03 | 0.03 | 64 | 1007.2 |
| 20260508015245 | 8 | 163 | 0.0 | 0.0 | 0.00 | 0.03 | 0.03 | 63 | 1007.3 |
| 20260508014741 | 8 | 162 | 0.0 | 0.0 | 0.00 | 0.03 | 0.03 | 63 | 1007.0 |
| 20260508014238 | 8 | 162 | 0.0 | 0.0 | 0.00 | 0.03 | 0.03 | 61 | 1007.2 |
| 20260508013734 | 8 | 162 | 0.0 | 0.0 | 0.00 | 0.03 | 0.03 | 61 | 1006.9 |
| 20260508013231 | 8 | 162 | 0.0 | 0.0 | 0.00 | 0.03 | 0.03 | 62 | 1007.2 |
| 20260508012728 | 8 | 162 | 0.0 | 0.0 | 0.00 | 0.03 | 0.03 | 62 | 1007.3 |
| 20260508012225 | 8 | 162 | 0.0 | 0.0 | 0.00 | 0.03 | 0.03 | 62 | 1007.2 |
| 20260508011723 | 8 | 162 | 0.0 | 0.0 | 0.00 | 0.03 | 0.03 | 62 | 1007.2 |
| 20260508011220 | 8 | 162 | 0.0 | 0.0 | 0.00 | 0.03 | 0.03 | 60 | 1007.0 |
| 20260508010717 | 8 | 162 | 0.0 | 0.0 | 0.00 | 0.03 | 0.03 | 61 | 1006.9 |
| 20260508010215 | 8 | 162 | 0.0 | 0.0 | 0.00 | 0.03 | 0.03 | 59 | 1006.9 |
| 20260508005712 | 8 | 162 | 0.0 | 0.0 | 0.00 | 0.03 | 0.03 | 59 | 1006.9 |
| 20260508005208 | 8 | 162 | 0.0 | 1.6 | 0.00 | 0.03 | 0.03 | 60 | 1006.8 |
| 20260508004704 | 8 | 162 | 0.0 | 1.6 | 0.00 | 0.03 | 0.03 | 58 | 1006.5 |
| 20260508004200 | 8 | 162 | 0.0 | 1.6 | 0.00 | 0.03 | 0.03 | 59 | 1006.4 |
| 20260508003657 | 8 | 162 | 0.0 | 0.0 | 0.00 | 0.03 | 0.03 | 58 | 1006.4 |
| 20260508003155 | 8 | 162 | 1.6 | 1.6 | 0.00 | 0.03 | 0.03 | 60 | 1006.5 |
| 20260508002651 | 8 | 162 | 1.6 | 1.6 | 0.00 | 0.03 | 0.03 | 59 | 1006.4 |
| 20260508002149 | 9 | 162 | 0.0 | 1.6 | 0.00 | 0.03 | 0.03 | 56 | 1006.2 |
| 20260508001644 | 9 | 162 | 0.0 | 0.0 | 0.00 | 0.03 | 0.03 | 56 | 1006.4 |
| 20260508001140 | 9 | 162 | 0.0 | 0.0 | 0.00 | 0.03 | 0.03 | 56 | 1006.3 |
| 20260508000636 | 9 | 162 | 0.0 | 0.0 | 0.00 | 0.03 | 0.03 | 55 | 1006.4 |
| 20260508000134 | 9 | 162 | 0.0 | 0.0 | 0.00 | 0.03 | 0.03 | 57 | 1006.3 |
| 20260507235630 | 10 | 162 | 0.0 | 0.0 | 0.00 | 0.03 | 0.03 | 57 | 1006.1 |
| 20260507235128 | 10 | 162 | 0.0 | 0.0 | 0.00 | 0.03 | 0.03 | 53 | 1006.0 |
| 20260507234624 | 10 | 162 | 1.6 | 1.6 | 0.00 | 0.03 | 0.03 | 53 | 1006.1 |
| 20260507234121 | 10 | 162 | 0.0 | 0.0 | 0.00 | 0.03 | 0.03 | 53 | 1006.1 |
| 20260507233618 | 11 | 162 | 0.0 | 0.0 | 0.00 | 0.03 | 0.03 | 52 | 1005.8 |
| 20260507233116 | 11 | 189 | 0.0 | 1.6 | 0.00 | 0.03 | 0.03 | 52 | 1006.0 |
| 20260507232613 | 11 | 189 | 0.0 | 0.0 | 0.00 | 0.03 | 0.03 | 51 | 1006.2 |
| 20260507232110 | 11 | 189 | 0.0 | 1.6 | 0.00 | 0.03 | 0.03 | 49 | 1006.0 |